SKU2213 SCEL-SAZN

Flight info

Callsign SKU2213
Flight time 1h 9m
Altitude 35000
Route LINE6C LINER UM783 ANKON UZ122 UGAGI UGAG1U
Aircraft A20N/M-SD3/L

Departure

Time 2026-05-06 01:40
Airport Comodoro Arturo Merino Benítez International Airport (SCEL)

Arrival

Time 2026-05-06 02:50
Airport Presidente Perón International Airport (SAZN)
Time Latitude Longitude Altitude Speed Heading
2026-05-06 01:20 -33.39438 -70.78966 1565 ft 0 kts 357°
2026-05-06 01:34 -33.39435 -70.78966 1565 ft 1 kts 357°
2026-05-06 01:34 -33.39424 -70.78962 1565 ft 2 kts 36°
2026-05-06 01:34 -33.39408 -70.78941 1565 ft 4 kts 56°
2026-05-06 01:34 -33.39397 -70.78904 1565 ft 5 kts 83°
2026-05-06 01:35 -33.39393 -70.78849 1565 ft 8 kts 86°
2026-05-06 01:35 -33.39350 -70.78809 1565 ft 10 kts 15°
2026-05-06 01:35 -33.39265 -70.78797 1565 ft 13 kts 356°
2026-05-06 01:35 -33.39158 -70.78804 1565 ft 16 kts 358°
2026-05-06 01:36 -33.39032 -70.78810 1565 ft 19 kts 357°
2026-05-06 01:36 -33.38889 -70.78817 1565 ft 21 kts 358°
2026-05-06 01:36 -33.38730 -70.78825 1565 ft 23 kts 358°
2026-05-06 01:36 -33.38565 -70.78835 1565 ft 23 kts 358°
2026-05-06 01:37 -33.38398 -70.78844 1565 ft 23 kts 358°
2026-05-06 01:37 -33.38234 -70.78852 1565 ft 23 kts 358°
2026-05-06 01:37 -33.38070 -70.78861 1565 ft 23 kts 357°
2026-05-06 01:37 -33.37906 -70.78869 1565 ft 23 kts 357°
2026-05-06 01:38 -33.37744 -70.78878 1565 ft 23 kts 356°
2026-05-06 01:38 -33.37614 -70.78883 1565 ft 15 kts
2026-05-06 01:38 -33.37548 -70.78801 1565 ft 15 kts 89°
2026-05-06 01:38 -33.37574 -70.78683 1565 ft 14 kts 145°
2026-05-06 01:39 -33.37616 -70.78671 1565 ft 0 kts 178°
2026-05-06 01:39 -33.37619 -70.78671 1565 ft 2 kts 178°
2026-05-06 01:39 -33.37893 -70.78657 1565 ft 77 kts 177°
2026-05-06 01:40 -33.38647 -70.78617 1565 ft 139 kts 177°
2026-05-06 01:40 -33.39743 -70.78562 1846 ft 165 kts 176°
2026-05-06 01:40 -33.40923 -70.78536 2406 ft 175 kts 177°
2026-05-06 01:40 -33.42123 -70.78468 3255 ft 170 kts 175°
2026-05-06 01:41 -33.43287 -70.78366 3874 ft 174 kts 174°
2026-05-06 01:41 -33.44539 -70.78260 4289 ft 190 kts 175°
2026-05-06 01:41 -33.45915 -70.78155 4720 ft 207 kts 175°
2026-05-06 01:41 -33.47426 -70.78050 5163 ft 224 kts 176°
2026-05-06 01:42 -33.49058 -70.77942 5511 ft 248 kts 176°
2026-05-06 01:42 -33.50844 -70.77827 5985 ft 266 kts 176°
2026-05-06 01:42 -33.52743 -70.77708 6539 ft 280 kts 176°
2026-05-06 01:42 -33.54691 -70.77584 7291 ft 285 kts 177°
2026-05-06 01:43 -33.56688 -70.77449 8039 ft 289 kts 177°
2026-05-06 01:43 -33.58691 -70.77332 8777 ft 293 kts 176°
2026-05-06 01:43 -33.60744 -70.77211 9467 ft 298 kts 176°
2026-05-06 01:43 -33.62811 -70.77067 10130 ft 302 kts 176°
2026-05-06 01:44 -33.64953 -70.76917 10598 ft 313 kts 176°
2026-05-06 01:44 -33.67199 -70.76765 10894 ft 329 kts 177°
2026-05-06 01:44 -33.69513 -70.76613 11206 ft 341 kts 178°
2026-05-06 01:44 -33.71929 -70.76460 11630 ft 349 kts 178°
2026-05-06 01:45 -33.74354 -70.76311 12198 ft 353 kts 179°
2026-05-06 01:45 -33.76809 -70.76164 12773 ft 356 kts 179°
2026-05-06 01:45 -33.79292 -70.76012 13324 ft 362 kts 179°
2026-05-06 01:45 -33.81838 -70.75854 13887 ft 365 kts 179°
2026-05-06 01:46 -33.84359 -70.75690 14417 ft 370 kts 180°
2026-05-06 01:46 -33.86953 -70.75519 14968 ft 375 kts 180°
2026-05-06 01:46 -33.89587 -70.75349 15538 ft 379 kts 180°
2026-05-06 01:46 -33.92236 -70.75138 16159 ft 383 kts 178°
2026-05-06 01:47 -33.94886 -70.74715 16776 ft 387 kts 175°
2026-05-06 01:47 -33.97545 -70.74238 17394 ft 389 kts 173°
2026-05-06 01:47 -34.00213 -70.73706 17953 ft 394 kts 173°
2026-05-06 01:47 -34.02924 -70.73138 18577 ft 397 kts 175°
2026-05-06 01:48 -34.05672 -70.72604 19186 ft 400 kts 175°
2026-05-06 01:48 -34.08411 -70.72079 19788 ft 404 kts 175°
2026-05-06 01:48 -34.11212 -70.71500 20350 ft 408 kts 177°
2026-05-06 01:48 -34.14018 -70.70964 20943 ft 410 kts 176°
2026-05-06 01:49 -34.16856 -70.70435 21475 ft 414 kts 175°
2026-05-06 01:49 -34.19717 -70.69841 22035 ft 418 kts 177°
2026-05-06 01:49 -34.22605 -70.69276 22557 ft 421 kts 178°
2026-05-06 01:49 -34.25509 -70.68714 23093 ft 424 kts 178°
2026-05-06 01:50 -34.28425 -70.68143 23594 ft 428 kts 178°
2026-05-06 01:50 -34.31353 -70.67576 24102 ft 432 kts 178°
2026-05-06 01:50 -34.34351 -70.66975 24648 ft 434 kts 179°
2026-05-06 01:50 -34.37312 -70.66396 25161 ft 437 kts 179°
2026-05-06 01:51 -34.40928 -70.65700 25742 ft 441 kts 178°
2026-05-06 01:51 -34.43935 -70.65117 26210 ft 445 kts 178°
2026-05-06 01:51 -34.47022 -70.64477 26652 ft 450 kts 179°
2026-05-06 01:51 -34.50128 -70.63869 27074 ft 454 kts 179°
2026-05-06 01:52 -34.53248 -70.63256 27488 ft 458 kts 179°
2026-05-06 01:52 -34.56419 -70.62625 27917 ft 462 kts 179°
2026-05-06 01:52 -34.59599 -70.61989 28301 ft 466 kts 180°
2026-05-06 01:52 -34.62817 -70.61353 28707 ft 468 kts 180°
2026-05-06 01:53 -34.65994 -70.60722 29224 ft 467 kts 180°
2026-05-06 01:53 -34.69226 -70.60082 29791 ft 465 kts 179°
2026-05-06 01:53 -34.72401 -70.59442 30351 ft 463 kts 180°
2026-05-06 01:53 -34.75570 -70.58816 30824 ft 463 kts 180°
2026-05-06 01:54 -34.78747 -70.58187 31281 ft 464 kts 181°
2026-05-06 01:54 -34.81918 -70.57548 31752 ft 463 kts 180°
2026-05-06 01:54 -34.85086 -70.56916 32229 ft 462 kts 181°
2026-05-06 01:54 -34.88279 -70.56287 32604 ft 463 kts 180°
2026-05-06 01:55 -34.91447 -70.55649 32950 ft 465 kts 181°
2026-05-06 01:55 -34.94652 -70.54998 33288 ft 466 kts 181°
2026-05-06 01:55 -34.97844 -70.54368 33571 ft 468 kts 181°
2026-05-06 01:55 -35.01083 -70.53734 33642 ft 470 kts 182°
2026-05-06 01:56 -35.07491 -70.52447 33660 ft 469 kts 181°
2026-05-06 01:56 -35.13954 -70.51175 33517 ft 468 kts 180°
2026-05-06 01:57 -35.20370 -70.49447 33473 ft 477 kts 172°
2026-05-06 01:57 -35.26625 -70.46667 33404 ft 485 kts 166°
2026-05-06 01:58 -35.32864 -70.43501 33372 ft 487 kts 165°
2026-05-06 01:58 -35.39097 -70.40272 33549 ft 485 kts 166°
2026-05-06 01:59 -35.42207 -70.38685 33886 ft 482 kts 166°
2026-05-06 01:59 -35.45311 -70.37110 34286 ft 478 kts 166°
2026-05-06 01:59 -35.48396 -70.35541 34692 ft 477 kts 166°
2026-05-06 01:59 -35.51437 -70.33988 34951 ft 478 kts 165°
2026-05-06 02:00 -35.54533 -70.32416 35080 ft 482 kts 166°
2026-05-06 02:00 -35.57641 -70.30845 35129 ft 482 kts 165°
2026-05-06 02:00 -35.63842 -70.27658 35016 ft 481 kts 166°
2026-05-06 02:01 -35.66948 -70.26083 34912 ft 480 kts 166°
2026-05-06 02:01 -35.70015 -70.24502 34764 ft 479 kts 166°
2026-05-06 02:01 -35.73072 -70.22932 34542 ft 478 kts 166°
2026-05-06 02:01 -35.76149 -70.21355 34329 ft 478 kts 166°
2026-05-06 02:02 -35.82257 -70.18237 34274 ft 478 kts 165°
2026-05-06 02:02 -35.88436 -70.15062 34477 ft 480 kts 166°
2026-05-06 02:03 -35.91516 -70.13458 34599 ft 481 kts 167°
2026-05-06 02:03 -35.94603 -70.11850 34721 ft 482 kts 167°
2026-05-06 02:03 -35.97664 -70.10308 34887 ft 481 kts 166°
2026-05-06 02:03 -36.00791 -70.08731 35025 ft 481 kts 165°
2026-05-06 02:04 -36.06913 -70.05545 35167 ft 480 kts 165°
2026-05-06 02:04 -36.13055 -70.02344 35151 ft 478 kts 166°
2026-05-06 02:05 -36.19194 -69.99169 35085 ft 477 kts 166°
2026-05-06 02:05 -36.25317 -69.95970 34992 ft 477 kts 166°
2026-05-06 02:06 -36.31427 -69.92796 34940 ft 477 kts 166°
2026-05-06 02:06 -36.37495 -69.89635 34958 ft 477 kts 167°
2026-05-06 02:07 -36.43599 -69.86455 35043 ft 478 kts 167°
2026-05-06 02:07 -36.49708 -69.83305 35119 ft 477 kts 165°
2026-05-06 02:08 -36.55821 -69.80064 35091 ft 478 kts 166°
2026-05-06 02:08 -36.61964 -69.76835 35033 ft 478 kts 166°
2026-05-06 02:09 -36.68062 -69.73640 34995 ft 477 kts 166°
2026-05-06 02:09 -36.74181 -69.70435 34965 ft 477 kts 166°
2026-05-06 02:10 -36.80300 -69.67223 34967 ft 477 kts 164°
2026-05-06 02:10 -36.86414 -69.63963 34979 ft 477 kts 165°
2026-05-06 02:11 -36.92501 -69.60729 34972 ft 478 kts 167°
2026-05-06 02:11 -36.98611 -69.57470 34974 ft 477 kts 167°
2026-05-06 02:12 -37.04747 -69.54280 34955 ft 477 kts 165°
2026-05-06 02:12 -37.10843 -69.51019 34944 ft 477 kts 165°
2026-05-06 02:13 -37.16831 -69.47820 34920 ft 477 kts 166°
2026-05-06 02:13 -37.22820 -69.44614 34885 ft 474 kts 165°
2026-05-06 02:14 -37.25818 -69.43005 34637 ft 471 kts 165°
2026-05-06 02:14 -37.28849 -69.41382 33935 ft 480 kts 165°
2026-05-06 02:14 -37.31961 -69.39724 33042 ft 488 kts 165°
2026-05-06 02:14 -37.35073 -69.38062 32337 ft 491 kts 164°
2026-05-06 02:15 -37.38174 -69.36396 31704 ft 491 kts 164°
2026-05-06 02:15 -37.41269 -69.34731 31049 ft 491 kts 163°
2026-05-06 02:15 -37.44422 -69.33038 30233 ft 492 kts 163°
2026-05-06 02:15 -37.47575 -69.31346 29470 ft 493 kts 162°
2026-05-06 02:16 -37.50730 -69.29649 28736 ft 493 kts 162°
2026-05-06 02:16 -37.53832 -69.27976 28178 ft 487 kts 162°
2026-05-06 02:16 -37.56926 -69.26304 27570 ft 482 kts 162°
2026-05-06 02:16 -37.59992 -69.24646 26937 ft 477 kts 162°
2026-05-06 02:17 -37.62904 -69.23072 26330 ft 472 kts 162°
2026-05-06 02:17 -37.65902 -69.21452 25708 ft 468 kts 162°
2026-05-06 02:17 -37.68872 -69.19847 25134 ft 463 kts 162°
2026-05-06 02:17 -37.71842 -69.18241 24541 ft 459 kts 162°
2026-05-06 02:18 -37.74738 -69.16673 23972 ft 455 kts 162°
2026-05-06 02:18 -37.77633 -69.15104 23368 ft 451 kts 162°
2026-05-06 02:18 -37.80504 -69.13545 22796 ft 448 kts 162°
2026-05-06 02:18 -37.83369 -69.11983 22254 ft 444 kts 162°
2026-05-06 02:19 -37.86181 -69.10449 21724 ft 441 kts 162°
2026-05-06 02:19 -37.88969 -69.08928 21182 ft 438 kts 162°
2026-05-06 02:19 -37.91769 -69.07401 20602 ft 437 kts 162°
2026-05-06 02:19 -37.94543 -69.05888 20091 ft 435 kts 162°
2026-05-06 02:20 -38.00088 -69.02869 19138 ft 429 kts 162°
2026-05-06 02:20 -38.02795 -69.01388 18666 ft 427 kts 162°
2026-05-06 02:20 -38.05528 -68.99897 18203 ft 423 kts 162°
2026-05-06 02:21 -38.08195 -68.98437 17751 ft 419 kts 162°
2026-05-06 02:21 -38.10875 -68.96969 17301 ft 415 kts 162°
2026-05-06 02:21 -38.13501 -68.95521 16887 ft 410 kts 162°
2026-05-06 02:21 -38.16096 -68.94093 16459 ft 406 kts 163°
2026-05-06 02:22 -38.18704 -68.92664 16023 ft 403 kts 162°
2026-05-06 02:22 -38.21251 -68.91270 15595 ft 399 kts 162°
2026-05-06 02:22 -38.23631 -68.89968 15081 ft 392 kts 161°
2026-05-06 02:22 -38.26104 -68.88597 14809 ft 382 kts 161°
2026-05-06 02:23 -38.28489 -68.87273 14468 ft 375 kts 162°
2026-05-06 02:23 -38.30912 -68.85938 14076 ft 370 kts 162°
2026-05-06 02:23 -38.33182 -68.84689 13682 ft 367 kts 162°
2026-05-06 02:23 -38.35499 -68.83414 13291 ft 363 kts 161°
2026-05-06 02:24 -38.37821 -68.82131 12907 ft 358 kts 161°
2026-05-06 02:24 -38.40085 -68.80877 12537 ft 354 kts 161°
2026-05-06 02:24 -38.42324 -68.79639 12170 ft 351 kts 161°
2026-05-06 02:24 -38.44537 -68.78419 11812 ft 347 kts 161°
2026-05-06 02:25 -38.46764 -68.77190 11454 ft 343 kts 161°
2026-05-06 02:25 -38.48938 -68.75987 11112 ft 340 kts 160°
2026-05-06 02:25 -38.51081 -68.74800 10786 ft 336 kts 160°
2026-05-06 02:25 -38.53199 -68.73617 10470 ft 330 kts 160°
2026-05-06 02:26 -38.55284 -68.72452 10166 ft 320 kts 160°
2026-05-06 02:26 -38.57263 -68.71345 10104 ft 304 kts 160°
2026-05-06 02:26 -38.59163 -68.70286 10063 ft 288 kts 160°
2026-05-06 02:26 -38.60961 -68.69289 10021 ft 272 kts 160°
2026-05-06 02:27 -38.62662 -68.68345 9948 ft 265 kts 159°
2026-05-06 02:27 -38.64360 -68.67401 9898 ft 264 kts 159°
2026-05-06 02:27 -38.66034 -68.66484 9799 ft 265 kts 160°
2026-05-06 02:27 -38.67743 -68.65597 9475 ft 264 kts 161°
2026-05-06 02:28 -38.69440 -68.64726 9174 ft 262 kts 161°
2026-05-06 02:28 -38.71130 -68.63860 8883 ft 258 kts 161°
2026-05-06 02:28 -38.72785 -68.63011 8602 ft 257 kts 160°
2026-05-06 02:28 -38.74453 -68.62153 8325 ft 256 kts 160°
2026-05-06 02:29 -38.76083 -68.61308 8060 ft 255 kts 160°
2026-05-06 02:29 -38.77728 -68.60456 7792 ft 254 kts 160°
2026-05-06 02:29 -38.79371 -68.59609 7523 ft 252 kts 159°
2026-05-06 02:29 -38.80985 -68.58772 7251 ft 252 kts 159°
2026-05-06 02:30 -38.82610 -68.57931 6981 ft 250 kts 159°
2026-05-06 02:30 -38.84205 -68.57100 6746 ft 249 kts 158°
2026-05-06 02:30 -38.85822 -68.56261 6485 ft 249 kts 158°
2026-05-06 02:30 -38.87403 -68.55433 6225 ft 247 kts 158°
2026-05-06 02:31 -38.88996 -68.54602 5963 ft 244 kts 158°
2026-05-06 02:31 -38.90558 -68.53790 5709 ft 241 kts 158°
2026-05-06 02:31 -38.92104 -68.52987 5454 ft 236 kts 158°
2026-05-06 02:31 -38.93594 -68.52140 5190 ft 231 kts 143°
2026-05-06 02:32 -38.94607 -68.50621 4951 ft 220 kts 109°
2026-05-06 02:32 -38.94874 -68.48727 4688 ft 213 kts 90°
2026-05-06 02:32 -38.94893 -68.46834 4410 ft 211 kts 89°
2026-05-06 02:32 -38.94879 -68.44965 4140 ft 209 kts 89°
2026-05-06 02:33 -38.94865 -68.43141 3877 ft 205 kts 89°
2026-05-06 02:33 -38.94859 -68.41921 3668 ft 205 kts 90°
2026-05-06 02:33 -38.94855 -68.37637 2925 ft 204 kts 89°
2026-05-06 02:34 -38.94857 -68.35888 2902 ft 194 kts 88°
2026-05-06 02:34 -38.94862 -68.34193 2977 ft 184 kts 87°
2026-05-06 02:34 -38.94868 -68.32652 2939 ft 164 kts 86°
2026-05-06 02:34 -38.94872 -68.31236 2929 ft 151 kts 86°
2026-05-06 02:35 -38.94873 -68.29884 2838 ft 148 kts 86°
2026-05-06 02:35 -38.94873 -68.28734 2686 ft 147 kts 86°
2026-05-06 02:35 -38.94874 -68.27442 2485 ft 146 kts 88°
2026-05-06 02:35 -38.94877 -68.26171 2289 ft 145 kts 88°
2026-05-06 02:36 -38.94879 -68.24939 2103 ft 144 kts 88°
2026-05-06 02:36 -38.94883 -68.23656 1913 ft 144 kts 88°
2026-05-06 02:36 -38.94885 -68.22366 1723 ft 143 kts 88°
2026-05-06 02:36 -38.94894 -68.21100 1516 ft 142 kts 89°
2026-05-06 02:37 -38.94902 -68.19840 1340 ft 141 kts 89°
2026-05-06 02:37 -38.94900 -68.18565 1166 ft 141 kts 90°
2026-05-06 02:37 -38.94904 -68.17315 977 ft 141 kts 90°
2026-05-06 02:37 -38.94901 -68.16106 905 ft 126 kts 90°
2026-05-06 02:38 -38.94899 -68.15039 905 ft 136 kts 90°
2026-05-06 02:38 -38.94906 -68.13718 1472 ft 149 kts 91°
2026-05-06 02:38 -38.94931 -68.12460 2201 ft 139 kts 91°
2026-05-06 02:38 -38.94936 -68.11244 2675 ft 137 kts 90°
2026-05-06 02:39 -38.94928 -68.09965 2906 ft 156 kts 90°
2026-05-06 02:39 -38.94836 -68.08440 2928 ft 183 kts 74°
2026-05-06 02:39 -38.93968 -68.07161 2909 ft 204 kts 26°
2026-05-06 02:39 -38.92543 -68.07049 2929 ft 215 kts 340°
2026-05-06 02:40 -38.91406 -68.08250 3029 ft 218 kts 301°
2026-05-06 02:40 -38.90789 -68.10047 3079 ft 222 kts 294°
2026-05-06 02:40 -38.90212 -68.11888 3091 ft 222 kts 296°
2026-05-06 02:40 -38.89567 -68.13706 3096 ft 221 kts 298°
2026-05-06 02:41 -38.88877 -68.15457 3099 ft 221 kts 300°
2026-05-06 02:41 -38.88151 -68.17179 3100 ft 220 kts 301°
2026-05-06 02:41 -38.87397 -68.18902 3100 ft 220 kts 302°
2026-05-06 02:41 -38.86640 -68.20597 3100 ft 220 kts 302°
2026-05-06 02:42 -38.85867 -68.22313 3102 ft 220 kts 301°
2026-05-06 02:42 -38.85430 -68.24172 3080 ft 224 kts 267°
2026-05-06 02:42 -38.85887 -68.26074 3103 ft 227 kts 245°
2026-05-06 02:42 -38.86624 -68.27860 3104 ft 229 kts 242°
2026-05-06 02:43 -38.87371 -68.29678 3103 ft 229 kts 244°
2026-05-06 02:43 -38.88074 -68.31515 3101 ft 229 kts 246°
2026-05-06 02:43 -38.88732 -68.33369 3103 ft 229 kts 247°
2026-05-06 02:43 -38.89366 -68.35230 3104 ft 228 kts 248°
2026-05-06 02:44 -38.89992 -68.37105 3104 ft 228 kts 248°
2026-05-06 02:44 -38.90657 -68.38966 3098 ft 228 kts 237°
2026-05-06 02:44 -38.91801 -68.40189 3027 ft 214 kts 194°
2026-05-06 02:44 -38.93176 -68.40092 2996 ft 189 kts 149°
2026-05-06 02:45 -38.93975 -68.38953 2937 ft 161 kts 113°
2026-05-06 02:45 -38.94381 -68.37692 2898 ft 149 kts 103°
2026-05-06 02:45 -38.94617 -68.36396 2901 ft 147 kts 95°
2026-05-06 02:45 -38.94734 -68.35099 2903 ft 147 kts 91°
2026-05-06 02:46 -38.94811 -68.33785 2905 ft 146 kts 89°
2026-05-06 02:46 -38.94852 -68.32501 2917 ft 142 kts 88°
2026-05-06 02:46 -38.94870 -68.31249 2907 ft 141 kts 87°
2026-05-06 02:46 -38.94877 -68.29984 2845 ft 141 kts 86°
2026-05-06 02:47 -38.94878 -68.28732 2661 ft 140 kts 86°
2026-05-06 02:47 -38.94880 -68.27489 2479 ft 139 kts 86°
2026-05-06 02:47 -38.94881 -68.26248 2298 ft 139 kts 86°
2026-05-06 02:47 -38.94882 -68.25011 2117 ft 138 kts 87°
2026-05-06 02:48 -38.94884 -68.23771 1933 ft 138 kts 87°
2026-05-06 02:48 -38.94887 -68.22552 1754 ft 137 kts 87°
2026-05-06 02:48 -38.94891 -68.21327 1586 ft 137 kts 88°
2026-05-06 02:48 -38.94899 -68.20101 1379 ft 136 kts 88°
2026-05-06 02:49 -38.94896 -68.18893 1205 ft 135 kts 89°
2026-05-06 02:49 -38.94900 -68.17696 1045 ft 135 kts 89°
2026-05-06 02:49 -38.94899 -68.16503 905 ft 126 kts 89°
2026-05-06 02:49 -38.94900 -68.15595 904 ft 76 kts 90°
2026-05-06 02:50 -38.94899 -68.15179 904 ft 13 kts 89°
2026-05-06 02:50 -38.94939 -68.15077 904 ft 13 kts 142°
2026-05-06 02:50 -38.95011 -68.14997 904 ft 14 kts 134°
2026-05-06 02:50 -38.95080 -68.14906 904 ft 14 kts 132°
2026-05-06 02:51 -38.95150 -68.14809 904 ft 15 kts 132°